Meteo pe oră la Liverpool

Astăzi, 30 Septembrie, Miercuri

Timp Temperatura Precipitaţii Vânt Presiune Umiditate
00:00 +10°C° 0 mm 4 m/s 757 mmHg 81%
01:00 +10°C° 0 mm 5 m/s 756 mmHg 81%
02:00 +10°C° 0 mm 5 m/s 755 mmHg 80%
03:00 +10°C° 0 mm 6 m/s 754 mmHg 79%
04:00 +10°C° 0.1 mm 6 m/s 754 mmHg 80%
05:00 +10°C° 0.1 mm 7 m/s 753 mmHg 80%
06:00 +10°C° 0.1 mm 7 m/s 752 mmHg 80%
07:00 +10°C° 0.3 mm 7 m/s 752 mmHg 82%
08:00 +10°C° 0.3 mm 8 m/s 751 mmHg 83%
09:00 +10°C° 0.3 mm 8 m/s 751 mmHg 84%
10:00 +11°C° 0.7 mm 8 m/s 750 mmHg 84%
11:00 +11°C° 0.7 mm 8 m/s 749 mmHg 84%
12:00 +11°C° 0.7 mm 8 m/s 749 mmHg 85%
13:00 +11°C° 0.9 mm 7 m/s 748 mmHg 86%
14:00 +11°C° 0.9 mm 6 m/s 747 mmHg 88%
15:00 +13°C° 0.9 mm 6 m/s 747 mmHg 89%
16:00 +12°C° 0.4 mm 5 m/s 746 mmHg 90%
17:00 +12°C° 0.4 mm 4 m/s 746 mmHg 90%
18:00 +12°C° 0.4 mm 3 m/s 746 mmHg 90%
19:00 +12°C° 0.1 mm 4 m/s 746 mmHg 91%
20:00 +10°C° 0.1 mm 5 m/s 747 mmHg 91%
21:00 +10°C° 0.1 mm 5 m/s 747 mmHg 92%
22:00 +10°C° 0.3 mm 6 m/s 747 mmHg 91%
23:00 +9°C° 0.3 mm 6 m/s 747 mmHg 91%

Mâine, 1 Octombrie, Joi

Timp Temperatura Precipitaţii Vânt Presiune Umiditate
00:00 +9°C° 0.3 mm 6 m/s 747 mmHg 91%
01:00 +9°C° 0.3 mm 6 m/s 747 mmHg 89%
02:00 +9°C° 0.3 mm 5 m/s 747 mmHg 87%
03:00 +8°C° 0.3 mm 5 m/s 747 mmHg 85%
04:00 +8°C° 0.1 mm 5 m/s 747 mmHg 84%
05:00 +7°C° 0.1 mm 4 m/s 747 mmHg 83%
06:00 +7°C° 0.1 mm 4 m/s 747 mmHg 82%
07:00 +8°C° 0.1 mm 4 m/s 747 mmHg 79%
08:00 +10°C° 0.1 mm 4 m/s 747 mmHg 77%
09:00 +10°C° 0.1 mm 4 m/s 747 mmHg 74%
10:00 +11°C° 0.1 mm 4 m/s 747 mmHg 69%
11:00 +12°C° 0.1 mm 4 m/s 747 mmHg 65%
12:00 +12°C° 0.1 mm 4 m/s 747 mmHg 60%
13:00 +12°C° 0.2 mm 3 m/s 746 mmHg 60%
14:00 +13°C° 0.2 mm 2 m/s 746 mmHg 61%
15:00 +13°C° 0.2 mm 1 m/s 745 mmHg 61%
16:00 +12°C° 0.1 mm 2 m/s 745 mmHg 65%
17:00 +10°C° 0.1 mm 2 m/s 745 mmHg 69%
18:00 +9°C° 0.1 mm 2 m/s 745 mmHg 73%
19:00 +9°C° 0 mm 2 m/s 745 mmHg 75%
20:00 +9°C° 0 mm 3 m/s 745 mmHg 77%
21:00 +8°C° 0 mm 3 m/s 745 mmHg 79%
22:00 +8°C° 0 mm 3 m/s 745 mmHg 80%
23:00 +8°C° 0 mm 3 m/s 744 mmHg 80%

Poimâine, 2 Octombrie, Vineri

Timp Temperatura Precipitaţii Vânt Presiune Umiditate
00:00 +7°C° 0 mm 3 m/s 744 mmHg 81%
01:00 +8°C° 0 mm 3 m/s 744 mmHg 81%
02:00 +8°C° 0 mm 3 m/s 745 mmHg 82%
03:00 +8°C° 0 mm 3 m/s 745 mmHg 83%
04:00 +7°C° 0.1 mm 4 m/s 745 mmHg 82%
05:00 +7°C° 0.1 mm 4 m/s 745 mmHg 82%
06:00 +7°C° 0.1 mm 4 m/s 745 mmHg 82%
07:00 +8°C° 0.1 mm 5 m/s 745 mmHg 81%
08:00 +8°C° 0.1 mm 5 m/s 746 mmHg 80%
09:00 +9°C° 0.1 mm 5 m/s 746 mmHg 80%
10:00 +10°C° 0 mm 6 m/s 746 mmHg 74%
11:00 +13°C° 0 mm 6 m/s 746 mmHg 68%
12:00 +14°C° 0 mm 6 m/s 746 mmHg 63%
13:00 +14°C° 0.1 mm 7 m/s 746 mmHg 65%
14:00 +14°C° 0.1 mm 7 m/s 746 mmHg 66%
15:00 +14°C° 0.1 mm 7 m/s 746 mmHg 68%
16:00 +14°C° 0.2 mm 7 m/s 746 mmHg 72%
17:00 +12°C° 0.2 mm 7 m/s 747 mmHg 77%
18:00 +11°C° 0.2 mm 7 m/s 747 mmHg 81%
19:00 +11°C° 0.1 mm 7 m/s 747 mmHg 82%
20:00 +11°C° 0.1 mm 7 m/s 747 mmHg 83%
21:00 +11°C° 0.1 mm 6 m/s 747 mmHg 84%
22:00 +11°C° 0 mm 6 m/s 747 mmHg 84%
23:00 +11°C° 0 mm 6 m/s 746 mmHg 83%

3 Octombrie, Sâmbătă

Timp Temperatura Precipitaţii Vânt Presiune Umiditate
00:00 +11°C° 0 mm 6 m/s 746 mmHg 83%
01:00 +11°C° 0 mm 6 m/s 746 mmHg 84%
02:00 +11°C° 0 mm 6 m/s 745 mmHg 86%
03:00 +11°C° 0 mm 6 m/s 745 mmHg 87%
04:00 +11°C° 0.1 mm 6 m/s 744 mmHg 88%
05:00 +13°C° 0.1 mm 6 m/s 744 mmHg 89%
06:00 +13°C° 0.1 mm 6 m/s 744 mmHg 90%
07:00 +13°C° 0.3 mm 5 m/s 743 mmHg 90%
08:00 +13°C° 0.3 mm 5 m/s 743 mmHg 91%
09:00 +13°C° 0.3 mm 4 m/s 742 mmHg 91%
10:00 +14°C° 0.1 mm 4 m/s 742 mmHg 87%
11:00 +15°C° 0.1 mm 4 m/s 741 mmHg 84%
12:00 +17°C° 0.1 mm 4 m/s 740 mmHg 80%
13:00 +15°C° 2 mm 4 m/s 740 mmHg 84%
14:00 +14°C° 2 mm 4 m/s 739 mmHg 88%
15:00 +14°C° 2 mm 4 m/s 738 mmHg 93%
16:00 +13°C° 1.2 mm 5 m/s 738 mmHg 91%
17:00 +11°C° 1.2 mm 6 m/s 737 mmHg 89%
18:00 +11°C° 1.2 mm 7 m/s 737 mmHg 88%
19:00 +10°C° 0 mm 6 m/s 737 mmHg 88%
20:00 +9°C° 0 mm 5 m/s 737 mmHg 88%
21:00 +9°C° 0 mm 5 m/s 737 mmHg 88%
22:00 +8°C° 0 mm 4 m/s 737 mmHg 88%
23:00 +8°C° 0 mm 4 m/s 737 mmHg 89%

4 Octombrie, Duminică

Timp Temperatura Precipitaţii Vânt Presiune Umiditate
00:00 +8°C° 0 mm 3 m/s 737 mmHg 89%
01:00 +9°C° 0 mm 3 m/s 737 mmHg 88%
02:00 +9°C° 0 mm 3 m/s 737 mmHg 87%
03:00 +9°C° 0 mm 3 m/s 738 mmHg 86%
04:00 +9°C° 0 mm 3 m/s 738 mmHg 86%
05:00 +9°C° 0 mm 3 m/s 738 mmHg 86%
06:00 +9°C° 0 mm 2 m/s 738 mmHg 87%
07:00 +10°C° 0 mm 2 m/s 738 mmHg 85%
08:00 +10°C° 0 mm 2 m/s 738 mmHg 83%
09:00 +12°C° 0 mm 2 m/s 738 mmHg 81%
10:00 +13°C° 0 mm 2 m/s 737 mmHg 78%
11:00 +12°C° 0 mm 3 m/s 737 mmHg 75%
12:00 +13°C° 0 mm 4 m/s 737 mmHg 72%
13:00 +13°C° 0.3 mm 4 m/s 736 mmHg 75%
14:00 +12°C° 0.3 mm 5 m/s 735 mmHg 79%
15:00 +12°C° 0.3 mm 5 m/s 735 mmHg 82%
16:00 +12°C° 1.2 mm 5 m/s 734 mmHg 84%
17:00 +10°C° 1.2 mm 6 m/s 734 mmHg 86%
18:00 +9°C° 1.2 mm 6 m/s 733 mmHg 88%
19:00 +9°C° 2.3 mm 7 m/s 733 mmHg 88%
20:00 +9°C° 2.3 mm 8 m/s 733 mmHg 88%
21:00 +7°C° 2.3 mm 9 m/s 733 mmHg 89%
22:00 +9°C° 1.7 mm 8 m/s 734 mmHg 90%
23:00 +9°C° 1.7 mm 7 m/s 734 mmHg 90%

5 Octombrie, Luni

Timp Temperatura Precipitaţii Vânt Presiune Umiditate
00:00 +9°C° 1.7 mm 6 m/s 735 mmHg 91%
01:00 +9°C° 0.5 mm 6 m/s 735 mmHg 91%
02:00 +9°C° 0.5 mm 6 m/s 736 mmHg 91%
03:00 +10°C° 0.5 mm 6 m/s 736 mmHg 90%
04:00 +10°C° 0.4 mm 6 m/s 737 mmHg 90%
05:00 +10°C° 0.4 mm 6 m/s 738 mmHg 89%
06:00 +10°C° 0.4 mm 5 m/s 739 mmHg 88%
07:00 +10°C° 0.1 mm 6 m/s 739 mmHg 87%
08:00 +11°C° 0.1 mm 6 m/s 740 mmHg 87%
09:00 +11°C° 0.1 mm 7 m/s 740 mmHg 87%
10:00 +13°C° 0.1 mm 6 m/s 741 mmHg 82%
11:00 +14°C° 0.1 mm 5 m/s 741 mmHg 77%
12:00 +15°C° 0.1 mm 4 m/s 742 mmHg 72%
13:00 +15°C° 0.3 mm 4 m/s 742 mmHg 73%
14:00 +15°C° 0.3 mm 4 m/s 743 mmHg 74%
15:00 +15°C° 0.3 mm 5 m/s 743 mmHg 75%
16:00 +14°C° 0.2 mm 5 m/s 744 mmHg 77%
17:00 +13°C° 0.2 mm 4 m/s 744 mmHg 79%
18:00 +12°C° 0.2 mm 4 m/s 745 mmHg 82%
19:00 +11°C° 0 mm 4 m/s 745 mmHg 83%
20:00 +11°C° 0 mm 4 m/s 746 mmHg 85%
21:00 +10°C° 0 mm 3 m/s 746 mmHg 86%
22:00 +10°C° 0 mm 3 m/s 747 mmHg 87%
23:00 +10°C° 0 mm 3 m/s 747 mmHg 87%
Arată mai mult

We Need Your Consent

Meteoprog and our Service Providers may store and access personal data such as cookies, device identifiers or other similar technologies on your device and process such data to personalise content and ads, as well as provide social media features and to analyse the traffic.

  • Store and/or access information on your device

    Cookies, device identifiers or other information can be stored or accessed on your device for the purposes indicated above.

  • Personalised ads and content, ad and content measurement, audience insights, and products development

    Ads and content can be personalised based on a profile. More data can be added to better personalise ads and content. Ad and content performance can be measured. Insights about the audience who saw the ads and content can be derived. Such data can be used to develop or improve user’s experience, systems and software.

By clicking ‘I Agree’ you will allow the use of indicated cookies, device identifiers, web beacons or other similar technologies. Your settings can be changed in the browser on your device.

For certain purposes, legitimate interests may be relied on, rather than consent. You can read more about this in our Privacy and Cookie Policy.